OH5GWF-1 Weather Reports


Display with metric or nautical units.
time (UTC)temp
F
wind
direction
speed
MPH
gust
MPH
rain 1hr
in
rain 24hr
in
rain mn
in
humidity
%
barometer
mb
20260503220257 46 248 0.0 0.0 0.00 0.00 0.00 77 1007.3
20260503215555 46 248 0.0 0.0 0.00 0.00 0.00 78 1007.4
20260503214852 46 248 0.0 0.0 0.00 0.00 0.00 78 1007.4
20260503214151 46 248 0.0 0.0 0.00 0.00 0.00 77 1007.4
20260503213449 46 248 0.0 0.0 0.00 0.00 0.00 77 1007.3
20260503212758 46 248 0.0 0.0 0.00 0.00 0.00 77 1007.4
20260503212055 46 248 0.0 0.0 0.00 0.00 0.00 77 1007.6
20260503211353 46 248 0.0 0.0 0.00 0.00 0.00 77 1007.6
20260503210651 46 248 0.0 0.0 0.00 0.00 0.00 77 1007.6
20260503205949 46 248 0.0 0.0 0.00 0.00 0.00 77 1007.7
20260503205258 46 248 0.0 0.0 0.00 0.00 0.00 77 1007.7
20260503204557 46 248 0.0 0.0 0.00 0.00 0.00 77 1007.8
20260503203854 46 248 0.0 0.0 0.00 0.00 0.00 77 1007.8
20260503203153 46 248 0.0 0.0 0.00 0.00 0.00 77 1007.8
20260503202452 46 248 0.0 0.0 0.00 0.00 0.00 78 1007.8
20260503201749 46 248 0.0 0.0 0.00 0.00 0.00 78 1007.8
20260503201059 46 248 0.0 0.0 0.00 0.00 0.00 78 1007.7
20260503200357 46 248 0.0 0.0 0.00 0.00 0.00 78 1007.8
20260503195654 46 248 0.0 0.0 0.00 0.00 0.00 77 1007.8
20260503194951 46 248 0.0 0.0 0.00 0.00 0.00 77 1007.8
20260503194249 46 248 0.0 0.0 0.00 0.00 0.00 76 1007.7
20260503193559 46 248 0.0 0.0 0.00 0.00 0.00 75 1007.7
20260503192857 46 248 0.0 0.0 0.00 0.00 0.00 76 1007.8
20260503192154 46 248 0.0 0.0 0.00 0.00 0.00 76 1007.8
20260503191451 47 248 0.0 0.0 0.00 0.00 0.00 75 1007.6
20260503190748 47 248 0.0 0.0 0.00 0.00 0.00 75 1007.6
20260503190058 47 248 0.0 0.0 0.00 0.00 0.00 74 1007.6
20260503185357 47 248 0.0 0.0 0.00 0.00 0.00 74 1007.6
20260503184655 47 248 0.0 0.0 0.00 0.00 0.00 74 1007.6
20260503183952 47 248 0.0 0.0 0.00 0.00 0.00 73 1007.5
20260503183249 47 248 0.0 0.0 0.00 0.00 0.00 71 1007.7
20260503182559 48 248 0.0 0.0 0.00 0.00 0.00 71 1007.8
20260503182451 48 248 0.0 0.0 0.00 0.00 0.00 71 1007.8
20260503181857 49 248 0.0 0.0 0.00 0.00 0.00 70 1007.6
20260503181344 49 248 0.0 0.0 0.00 0.00 0.00 69 1007.4
20260503181154 49 248 0.0 0.0 0.00 0.00 0.00 68 1007.4
20260503180453 50 248 0.0 0.0 0.00 0.00 0.00 68 1007.5
20260503180253 50 248 0.0 0.0 0.00 0.00 0.00 67 1007.4
20260503175750 51 248 0.0 0.0 0.00 0.00 0.00 66 1007.3
20260503175150 51 248 0.0 0.0 0.00 0.00 0.00 66 1007.3
20260503175048 51 248 0.0 1.0 0.00 0.00 0.00 66 1007.3
20260503174359 52 248 0.0 0.0 0.00 0.00 0.00 65 1007.3
20260503174048 53 248 0.0 0.0 0.00 0.00 0.00 65 1007.3
20260503173656 53 248 0.0 0.0 0.00 0.00 0.00 64 1007.3
20260503172945 53 248 1.0 2.0 0.00 0.00 0.00 65 1007.2
20260503172252 53 248 1.0 2.0 0.00 0.00 0.00 64 1007.2
20260503171853 53 248 0.0 1.0 0.00 0.00 0.00 64 1007.3
20260503171550 53 248 1.0 1.0 0.00 0.00 0.00 64 1007.3
20260503170900 53 248 0.0 0.0 0.00 0.00 0.00 64 1007.4
20260503170749 53 248 0.0 0.0 0.00 0.00 0.00 64 1007.4
20260503170158 53 248 0.0 0.0 0.00 0.00 0.00 64 1007.4
20260503160149 55 248 0.0 2.0 0.00 0.00 0.00 59 1007.4
20260503150953 57 248 1.0 2.0 0.00 0.00 0.00 57 1007.6
20260503150654 57 356 1.0 3.0 0.00 0.00 0.00 57 1007.5
20260503150252 58 241 2.0 3.0 0.00 0.00 0.00 56 1007.5
20260503131059 63 335 2.0 7.0 0.00 0.00 0.00 51 1007.6
20260503130546 64 322 1.0 3.0 0.00 0.00 0.00 50 1007.6
20260503130356 64 244 2.0 3.0 0.00 0.00 0.00 49 1007.6
20260503110451 62 298 3.0 8.0 0.00 0.00 0.00 55 1007.5
20260503100153 59 285 3.0 5.0 0.00 0.00 0.00 60 1006.8
20260503090345 55 217 3.0 5.0 0.00 0.00 0.00 66 1006.7
20260503080954 56 248 0.0 0.0 0.00 0.00 0.00 62 1006.2
20260503080842 56 248 0.0 1.0 0.00 0.00 0.00 62 1006.2
20260503080251 57 248 0.0 1.0 0.00 0.00 0.00 61 1006.2
20260503072753 55 248 1.0 3.0 0.00 0.00 0.00 64 1006.3
20260503072442 55 188 2.0 2.0 0.00 0.00 0.00 65 1006.2
20260503072052 55 248 0.0 0.0 0.00 0.00 0.00 65 1006.0
20260503071704 55 296 2.0 3.0 0.00 0.00 0.00 66 1006.0
20260503071349 55 296 2.0 3.0 0.00 0.00 0.00 66 1006.0
20260503070700 54 255 1.0 6.0 0.00 0.00 0.00 66 1005.8
20260503070248 53 248 2.0 3.0 0.00 0.00 0.00 65 1005.7
20260503054953 51 248 1.0 3.0 0.00 0.00 0.00 74 1005.4
20260503054250 49 248 1.0 2.0 0.00 0.00 0.00 76 1005.3
20260503053600 48 248 1.0 2.0 0.00 0.00 0.00 76 1005.4
20260503052858 48 248 0.0 3.0 0.00 0.00 0.00 77 1005.4
20260503052155 48 248 1.0 3.0 0.00 0.00 0.00 77 1005.2
20260503051453 48 248 2.0 3.0 0.00 0.00 0.00 78 1005.1
20260503050749 47 248 3.0 3.0 0.00 0.00 0.00 79 1005.0
20260503050059 46 251 1.0 6.0 0.00 0.00 0.00 80 1005.0
20260503045357 46 252 2.0 2.0 0.00 0.00 0.00 80 1005.0
20260503044655 46 237 6.0 9.0 0.00 0.00 0.00 80 1005.1
20260503043954 46 248 1.0 3.0 0.00 0.00 0.00 79 1005.0
20260503043251 46 248 0.0 2.0 0.00 0.00 0.00 79 1004.8
20260503042550 46 248 0.0 2.0 0.00 0.00 0.00 79 1004.7
20260503041900 45 248 0.0 0.0 0.00 0.00 0.00 79 1004.6
20260503041157 46 248 0.0 1.0 0.00 0.00 0.00 79 1004.4
20260503040455 46 248 0.0 1.0 0.00 0.00 0.00 79 1004.8
20260503035753 46 248 0.0 1.0 0.00 0.00 0.00 80 1005.0
20260503035050 45 248 0.0 2.0 0.00 0.00 0.00 81 1005.0
20260503034348 44 248 0.0 0.0 0.00 0.00 0.00 82 1004.8
20260503033657 43 248 0.0 1.0 0.00 0.00 0.00 83 1004.8
20260503032956 43 248 0.0 0.0 0.00 0.00 0.00 83 1004.7
20260503032255 42 248 0.0 0.0 0.00 0.00 0.00 83 1004.9
20260503031553 42 248 0.0 0.0 0.00 0.00 0.00 84 1004.8
20260503030852 41 248 0.0 1.0 0.00 0.00 0.00 83 1004.9
20260503030149 41 248 0.0 0.0 0.00 0.00 0.00 82 1004.8
20260503025459 41 248 0.0 0.0 0.00 0.00 0.00 82 1004.7
20260503024758 41 248 0.0 0.0 0.00 0.00 0.00 82 1004.7
20260503024055 40 248 0.0 0.0 0.00 0.00 0.00 81 1004.7
20260503023353 41 248 0.0 0.0 0.00 0.00 0.00 81 1004.7
20260503022650 41 248 0.0 0.0 0.00 0.00 0.00 80 1004.7
20260503022000 42 248 0.0 0.0 0.00 0.00 0.00 80 1004.8
20260503021258 43 248 0.0 0.0 0.00 0.00 0.00 79 1004.7
20260503020556 44 248 0.0 0.0 0.00 0.00 0.00 78 1004.7
20260503015855 44 251 1.0 2.0 0.00 0.00 0.00 78 1004.8
20260503015152 44 248 0.0 1.0 0.00 0.00 0.00 78 1004.9
20260503014451 44 248 0.0 0.0 0.00 0.00 0.00 78 1005.0
20260503013750 44 248 0.0 1.0 0.00 0.00 0.00 78 1005.0
20260503013059 44 248 0.0 1.0 0.00 0.00 0.00 78 1004.9
20260503012356 44 248 0.0 0.0 0.00 0.00 0.00 77 1004.9
20260503011655 44 248 0.0 0.0 0.00 0.00 0.00 77 1005.0
20260503010953 44 279 0.0 2.0 0.00 0.00 0.00 77 1004.9
20260503010250 44 248 0.0 1.0 0.00 0.00 0.00 76 1005.3
20260503005600 44 248 0.0 2.0 0.00 0.00 0.00 76 1005.0
20260503004859 44 249 0.0 2.0 0.00 0.00 0.00 76 1005.1
20260503004158 44 248 0.0 1.0 0.00 0.00 0.00 76 1005.1
20260503003456 44 248 1.0 2.0 0.00 0.00 0.00 76 1005.1
20260503002754 44 257 1.0 2.0 0.00 0.00 0.00 76 1005.3
20260503002050 43 255 1.0 2.0 0.00 0.00 0.00 75 1005.5
20260503001349 43 248 0.0 0.0 0.00 0.00 0.00 74 1005.5
20260503000658 44 248 0.0 0.0 0.00 0.00 0.00 73 1005.6
20260502235957 44 248 1.0 2.0 0.00 0.00 0.00 72 1005.5
20260502235256 44 248 1.0 3.0 0.00 0.00 0.00 72 1005.6
20260502234553 44 248 1.0 1.0 0.00 0.00 0.00 70 1005.8
20260502233851 44 248 0.0 1.0 0.00 0.00 0.00 68 1005.8
20260502233150 45 248 0.0 1.0 0.00 0.00 0.00 67 1005.8
20260502232459 45 248 0.0 1.0 0.00 0.00 0.00 66 1005.8
20260502231757 45 248 1.0 2.0 0.00 0.00 0.00 65 1005.7
20260502231056 46 248 0.0 0.0 0.00 0.00 0.00 63 1005.8
20260502230354 47 248 0.0 0.0 0.00 0.00 0.00 63 1005.8
20260502225653 47 248 2.0 3.0 0.00 0.00 0.00 63 1006.0
20260502224949 47 248 2.0 2.0 0.00 0.00 0.00 63 1006.0
20260502224259 47 248 0.0 1.0 0.00 0.00 0.00 62 1006.2
20260502223557 46 248 0.0 1.0 0.00 0.00 0.00 62 1006.3
20260502222855 46 248 0.0 0.0 0.00 0.00 0.00 61 1006.5
20260502222153 46 248 1.0 1.0 0.00 0.00 0.00 61 1006.5
20260502221450 46 248 0.0 1.0 0.00 0.00 0.00 61 1006.6